sat.trackr.live / text

‹ back to catalog

STARLINK-32538

NORAD 62170 · 2024-225H

PAYLOAD ACTIVE UNKNOWN

§ Identity

Operator
Country
US
Launch date
2024-11-30
Launch site
AFWTR
Launch vehicle
Mass (kg)
RCS (m²)

Purposes: comms

External: N2YO · Heavens-Above · Gunter

§ Orbital elements

Epoch: 2026-09-21T22:00:03.000096Z

Period
95.85 min
Inclination
70.0006°
Eccentricity
0.0005512
Mean motion
15.02301489 rev/d
Perigee alt
556.0 km
Apogee alt
563.6 km
Semi-major
6,937.9 km
B*
3.3105e-4
RAAN
29.8189°
Arg perigee
288.4096°
Mean anomaly
113.7966°
Rev number
567

§ Raw data

STARLINK-325381 62170U 24225H   26264.91670139  .00004289  00000+0  33105-3 0  99942 62170  70.0006  29.8189 0005512 288.4096 113.7966 15.02301489  5672

JSON: /api/v1/satellites/62170 · /tle

For live sub-satellite position, see the globe view (requires WebGL).

§ Visibility from observer

Set your observer location to see the next 7 days of passes ≥ 10°. The values pass through the URL so the page stays shareable.

No JS? Fill the form by hand. The geolocation button needs JavaScript.